Location: Unspecified
(40.8819°N, 0.0000°E)
Time: 20:15:51
(UTC+00:00)

ESTCUBE 1 - Visible Passes

Search period start: 22 April 2024 00:00
Search period end: 02 May 2024 00:00
Orbit: 635 x 649 km, 97.8° (Epoch: 22 April)

Date Brightness Start Highest point End Pass type
(mag) Time Alt. Az. Time Alt. Az. Time Alt. Az.
22 Apr ? 20:05:07 10° ENE 20:05:54 11° ENE 20:06:57 10° NE visible
22 Apr ? 21:42:44 55° NNW 21:42:44 55° NNW 21:46:14 10° NNW visible
23 Apr ? 20:29:19 19° ENE 20:29:38 19° ENE 20:32:41 10° NNE visible
23 Apr ? 22:06:55 35° WNW 22:06:55 35° WNW 22:10:04 10° NNW visible
24 Apr ? 20:53:30 32° ENE 20:53:30 32° ENE 20:57:21 10° N visible
24 Apr ? 22:31:07 21° WNW 22:31:07 21° WNW 22:33:31 10° NW visible
25 Apr ? 21:17:40 55° NE 21:17:40 55° NE 21:21:39 10° N visible
25 Apr ? 22:55:17 12° WNW 22:55:17 12° WNW 22:56:08 10° WNW visible
26 Apr ? 20:04:22 10° ENE 20:05:21 11° ENE 20:06:20 10° NE visible
26 Apr ? 21:41:50 65° NW 21:41:50 65° NW 21:45:41 10° NNW visible
27 Apr ? 20:28:22 18° ENE 20:29:02 19° ENE 20:32:04 10° NNE visible
27 Apr ? 22:05:59 38° WNW 22:05:59 38° WNW 22:09:27 10° NNW visible
28 Apr ? 20:52:30 31° ENE 20:52:47 31° ENE 20:56:41 10° N visible
28 Apr ? 22:30:07 22° WNW 22:30:07 22° WNW 22:32:52 10° NW visible
29 Apr ? 21:16:38 57° ENE 21:16:38 57° ENE 21:20:57 10° N visible
29 Apr ? 22:54:14 12° W 22:54:14 12° W 22:55:29 10° WNW visible
30 Apr ? 20:03:43 10° ENE 20:04:37 11° ENE 20:05:30 10° NE visible
30 Apr ? 21:40:45 75° WNW 21:40:45 75° WNW 21:44:56 10° NNW visible
01 May ? 20:27:14 17° E 20:28:14 18° ENE 20:31:15 10° NNE visible
01 May ? 22:04:51 41° W 22:04:51 41° W 22:08:39 10° NNW visible
